Regional Weather Roundup
Issued by NWS

Home | Current Version | Previous Version | Text Only | Print | Product List | Glossary On
Versions: 1 2 3 4 5 6 7 8 9 10 11 12 13 14 15 16 17 18 19 20 21 22 23 24 25 26 27 28 29 30 31 32 33 34 35 36 37 38 39 40 41 42 43 44 45 46 47 48 49 50
000
ASUS43 KIND 230809
RWRIN

WEATHER ROUNDUP FOR INDIANA
NATIONAL WEATHER SERVICE INDIANAPOLIS IN
400 AM EDT MON OCT 23 2017

NOTE: "FAIR" INDICATES FEW OR NO CLOUDS BELOW 12,000 FEET WITH NO
SIGNIFICANT WEATHER AND/OR OBSTRUCTIONS TO VISIBILITY.

* - STATION DOES NOT REPORT WEATHER SUCH AS PRECIPITATION OR FOG.

+ - STATION NOT QUALITY CONTROLLED BY THE NATIONAL WEATHER SERVICE.
    USE DATA WITH CAUTION...ESPECIALLY DEWPOINT AND RELATIVE
    HUMIDITY OBSERVATIONS.

INZ001>003-010>013-019-020-230900-
NORTHWEST INDIANA

CITY           SKY/WX    TMP DP  RH WIND       PRES   REMARKS
GARY /AIRPORT/ RAIN      56  55  96 N12       29.94F
KNOX *+        CLOUDY    55  54  94 N5        29.91F
LA PORTE +     HVY RAIN  55  55  98 N6        29.93F
MICHIGAN CITY+ RAIN      55  55 100 CALM      29.94S
MONTICELLO +   DRIZZLE   56  55  95 CALM      29.89F
RENSSELAER +   LGT RAIN  55  52  88 NE9       29.90F
VALPARAISO     RAIN      57  56  96 NE6       29.92F FOG

$$

LMZ046-743>745-230900-
SOUTHERN LAKE MICHIGAN

STATION/POSITION TIME  TEMP    WIND        PRES    WAVE
                       AIR SEA DIR/SP/G            HT
                 (UTC) (F)     (DEG/KT/KT) (MB)    (FT)
BURNS HARBOR     0740   57      20/ 12/ 14 1013.9F
MICHIGAN CITY    0740   56      30/ 10/ 10   N/A
5NW MICH CITY    0800   56 58   20/ 10/ 14   N/A     4

$$

INZ004-005-014>016-021>024-230900-
NORTH CENTRAL INDIANA

CITY           SKY/WX    TMP DP  RH WIND       PRES   REMARKS
GOSHEN         CLOUDY    61  58  90 CALM      29.91F
LOGANSPORT +   CLOUDY    59  55  88 N3        29.91S
PERU/GRISSOM   DRIZZLE   64  55  72 SE5       29.90F
SOUTH BEND     LGT RAIN  56  56 100 N5        29.93F
WARSAW +       CLOUDY    63  54  72 CALM      29.92F

$$

INZ006>009-017-018-025>027-230900-
NORTHEAST INDIANA

CITY           SKY/WX    TMP DP  RH WIND       PRES   REMARKS
AUBURN +       CLOUDY    63  50  63 CALM      29.94F
FORT WAYNE     CLOUDY    64  51  62 SE7       29.93F
HUNTINGTON +   CLOUDY    65  52  63 SE6       29.92F
KENDALLVILLE + CLOUDY    65  52  63 S6        29.93F

$$

INZ028-029-035-036-043>045-051>053-230900-
WEST CENTRAL INDIANA

CITY           SKY/WX    TMP DP  RH WIND       PRES   REMARKS
CRAWFORDSVL +  RAIN      61  61 100 SE7       29.87F
GREENCASTLE +  LGT RAIN  61  61 100 SE7       29.88F
LAFAYETTE      LGT RAIN  57  57 100 NE5       29.89F
TERRE HAUTE    LGT RAIN  65  62  90 SE15      29.83F

$$

INZ030>032-037>040-046>048-054>057-064-065-230900-
CENTRAL INDIANA

CITY           SKY/WX    TMP DP  RH WIND       PRES   REMARKS
CP ATTERBURY + CLOUDY    66  55  68 SE5       29.90F
FISHERS *+     CLOUDY    64  59  82 S3        29.91
FRANKFORT +    RAIN      63  60  91 CALM      29.91F
GREENWOOD *+   CLOUDY    69  58  67 S3        29.92F
INDIANAPOLIS   LGT RAIN  63  59  87 E6        29.89F
-EAGLE CREEK   RAIN      64  58  80 SE6       29.90F
KOKOMO +       CLOUDY    64  55  72 SE7       29.92F
MT COMFORT *+  CLOUDY    64  57  77 S5        29.92F
SHELBYVILLE    CLOUDY    66  53  63 SE6       29.90F
ZIONSVILLE +   RAIN      63  57  82 S7        29.91F

$$

INZ033-034-041-042-049-050-058-059-230900-
EAST CENTRAL INDIANA

CITY           SKY/WX    TMP DP  RH WIND       PRES   REMARKS
MUNCIE         CLOUDY    68  52  56 S8        29.92F
RICHMOND +     CLOUDY    61  50  67 SE10      29.96F

$$

INZ060-061-067>069-081>083-085>088-230900-
SOUTHWEST INDIANA

CITY           SKY/WX    TMP DP  RH WIND       PRES   REMARKS
EVANSVILLE     HVY RAIN  65  63  93 SE6       29.83F FOG
HUNTINGBURG +  LGT RAIN  66  63  90 S6        29.85F
WASHINGTON +   RAIN     N/A N/A N/A SE7       29.84F

$$

INZ062-063-066-070>080-084-089>092-230900-
SOUTH CENTRAL AND SOUTHEAST INDIANA

CITY           SKY/WX    TMP DP  RH WIND       PRES   REMARKS
BEDFORD +      LGT RAIN  64  59  82 SE7       29.87
BLOOMINGTON    CLOUDY    64  60  87 SE8       29.87F FOG
MADISON *+     MOCLDY    66  52  59 SE7       29.93F
NORTH VERNON + CLOUDY    66  52  59 SE9       29.91

$$




USA.gov is the U.S. government's official web portal to all federal, state and local government web resources and services.